Theta_e
330 328 328 330 326 320 322 320 315 317 325 322 312 310 312 310 309 311 310 311 315 320 325 330 331 332 332 333 334 335 338 344 347 349 346 340 344 351 352 352 355 356 358 358 358 359 360 363 362 362 362 362 363 364 365 366 365 365 363 363 363 363 363
329 328 327 330 328 326 322 315 317 323 325 323 317 312 312 311 310 311 310 309 312 312 316 327 331 331 332 333 333 333 336 340 344 348 348 344 341 346 352 355 355 355 354 355 358 358 359 364 364 363 364 363 363 364 365 366 367 367 365 363 363 363 363
327 331 328 326 327 330 326 321 324 323 315 314 315 312 312 313 312 312 311 310 311 310 314 323 329 330 332 333 334 334 334 336 341 345 347 347 343 343 352 354 353 354 354 356 360 359 360 365 364 363 363 363 363 365 366 367 367 368 367 365 365 365 364
328 329 326 319 321 327 328 327 327 324 317 315 314 314 314 313 313 314 313 311 311 315 323 327 330 333 333 333 336 336 333 334 338 343 347 347 344 345 351 351 351 351 350 352 359 361 362 363 365 364 362 361 363 365 367 368 369 369 368 367 365 366 366
324 322 324 322 321 323 322 321 320 320 320 319 318 316 313 313 314 314 314 312 311 321 333 333 333 335 333 334 337 336 335 334 337 344 348 347 343 346 350 350 350 350 350 353 357 362 360 360 364 364 362 362 362 364 368 369 370 370 369 368 366 366 367
316 319 327 329 327 326 323 320 319 319 318 316 314 314 313 312 312 312 314 311 312 324 335 335 334 335 333 334 335 335 335 333 336 341 345 347 347 346 347 346 345 349 353 353 353 357 357 356 362 364 362 363 362 364 368 369 370 370 369 369 367 367 368
321 326 329 328 327 328 327 325 326 326 322 315 310 310 312 311 311 312 312 310 315 329 337 334 334 336 333 333 335 336 334 333 338 338 340 348 348 344 343 343 343 347 350 351 352 355 354 354 360 364 364 363 363 365 367 367 369 370 369 369 368 367 367
329 327 328 328 329 328 325 324 327 327 323 320 317 316 316 313 310 311 311 310 316 330 339 334 333 336 333 333 334 334 335 334 337 337 339 348 350 348 346 346 349 351 351 355 357 357 356 358 363 366 364 364 363 364 365 366 368 369 369 369 368 367 367
322 320 321 323 324 325 324 324 327 327 326 326 323 321 320 315 311 312 311 309 315 329 340 334 331 333 332 333 332 333 335 334 337 344 351 354 354 352 350 351 355 355 355 360 363 361 362 364 365 366 365 365 364 363 365 366 367 368 369 368 368 367 367
317 314 314 316 319 322 323 324 326 325 327 326 321 317 315 313 315 315 311 309 317 332 338 333 331 331 332 335 333 332 335 336 344 357 362 361 359 356 355 356 358 357 359 363 364 367 369 367 365 366 365 365 365 363 365 365 365 367 367 367 368 367 368
319 318 321 325 325 321 318 320 322 324 326 327 323 316 312 315 318 314 316 319 320 327 334 334 330 329 333 334 333 336 342 341 346 356 361 361 359 359 358 360 363 365 367 369 369 370 371 366 363 365 366 365 365 365 364 364 364 364 365 366 366 366 368
326 332 333 332 330 322 318 319 320 323 325 326 322 315 316 324 317 311 326 336 323 323 333 334 331 333 336 335 333 340 344 340 342 351 354 353 352 355 359 364 370 371 371 378 380 374 370 366 363 364 364 365 366 366 365 364 363 363 364 365 365 366 368
328 334 332 333 333 328 325 324 321 323 324 323 320 318 323 329 319 315 332 338 326 327 333 331 333 336 335 334 336 338 338 338 343 347 346 344 343 347 356 364 371 371 371 382 387 379 371 367 364 363 363 364 366 366 364 365 363 362 363 364 364 365 367
326 330 331 332 331 328 327 327 324 324 325 323 322 324 327 329 325 326 334 334 329 332 332 329 333 336 334 336 338 335 335 338 343 343 340 339 339 342 351 358 366 372 376 383 388 385 379 371 366 364 362 364 366 365 364 364 364 363 362 363 364 363 365
323 327 331 331 331 329 325 325 327 326 325 324 323 325 327 327 326 328 333 333 332 333 335 335 337 338 337 337 337 336 336 337 338 336 334 337 339 343 351 358 363 369 375 379 384 386 382 375 369 364 363 363 364 363 363 363 363 363 362 364 364 363 364
320 325 328 327 328 329 322 322 327 325 323 323 323 325 327 326 325 326 326 325 330 336 339 337 336 338 336 336 335 335 336 335 334 334 334 337 341 343 352 362 368 367 367 373 377 376 372 370 367 364 365 362 361 361 361 362 362 362 362 363 365 364 364
320 324 326 326 325 323 319 321 326 327 328 327 325 326 328 329 328 325 322 326 335 342 339 336 336 336 335 336 335 335 340 343 339 335 334 336 336 337 344 356 362 360 359 366 370 367 364 364 363 362 362 362 361 361 359 360 361 361 360 361 364 366 365
320 322 324 324 321 318 321 327 330 330 331 329 327 326 328 329 330 328 329 335 341 340 337 336 337 336 336 339 339 338 342 345 340 336 336 336 337 339 338 339 348 358 365 368 366 362 360 361 359 359 358 359 361 360 358 359 360 360 360 360 362 365 366
320 321 322 321 319 321 326 329 331 330 329 330 330 331 329 329 329 330 334 336 338 338 337 335 337 337 336 337 337 337 337 338 339 337 335 335 336 337 339 345 357 367 371 366 361 357 354 353 353 353 356 358 359 358 358 359 359 359 360 359 360 365 367
321 320 320 321 323 326 328 331 331 329 330 330 328 327 329 331 331 331 334 335 337 337 335 334 336 337 336 336 338 339 336 335 334 330 330 339 343 343 350 361 368 370 365 359 360 360 358 354 350 347 349 352 356 357 357 357 358 360 362 361 360 364 368
321 318 317 320 322 322 325 329 329 329 330 330 327 324 326 330 331 332 334 334 332 332 331 334 337 336 337 341 340 338 335 336 340 340 343 351 355 353 355 360 365 368 366 365 365 364 361 358 354 350 348 347 349 354 356 356 358 359 362 364 363 363 367
321 319 318 320 319 318 322 325 330 332 328 329 332 325 324 334 334 329 330 334 335 336 333 334 339 343 345 345 342 342 344 345 350 354 353 354 354 352 354 359 363 366 365 363 362 361 360 357 356 355 354 353 353 357 358 357 358 359 362 365 364 364 367
319 319 319 320 317 319 325 329 330 328 326 332 332 322 325 342 347 337 334 336 338 340 338 337 342 346 345 344 345 348 348 348 351 353 352 354 354 352 355 360 361 360 360 361 362 364 364 367 366 362 360 359 360 362 362 359 359 361 361 363 364 365 367
319 319 319 319 320 323 328 330 328 327 329 332 326 320 328 344 347 340 340 340 338 342 344 344 346 347 346 346 347 348 346 346 350 350 349 351 352 352 354 358 358 358 360 364 367 366 366 369 369 366 365 366 364 364 364 362 360 361 362 361 362 363 366
317 319 318 318 323 327 326 327 331 331 328 325 324 326 336 345 342 341 343 342 342 346 346 346 347 347 346 345 345 346 346 347 348 348 349 351 352 352 352 355 359 359 360 364 366 365 365 366 367 367 367 366 365 365 364 363 361 360 360 361 361 362 363
316 319 317 317 325 329 325 326 332 331 332 335 333 336 341 341 339 343 343 342 345 346 345 346 347 345 343 343 345 346 346 347 348 348 349 351 353 354 352 355 359 358 358 363 364 362 363 364 366 370 371 368 366 365 365 364 362 359 360 362 362 363 363
315 317 317 320 328 330 326 328 333 332 335 337 336 336 337 337 338 341 341 342 344 344 343 344 343 342 343 344 346 346 346 347 348 348 351 352 353 354 353 355 358 357 358 362 363 362 364 364 363 368 373 373 367 363 364 364 361 358 360 364 363 364 365
315 317 319 322 326 326 324 326 329 329 330 331 329 331 333 335 335 336 339 341 341 341 343 343 341 342 344 344 344 345 346 347 347 349 350 351 352 353 353 355 356 356 358 362 362 361 363 363 363 367 372 373 367 366 370 371 367 363 361 363 365 366 366
318 318 320 321 322 323 322 323 323 324 324 324 324 327 330 331 332 334 337 338 338 339 341 342 342 343 343 343 343 345 345 346 348 349 349 350 352 353 353 355 357 356 358 360 359 359 360 361 362 365 368 371 372 373 373 372 372 371 367 364 367 368 367
319 318 320 321 321 322 322 320 320 322 322 322 323 326 328 329 329 330 332 334 336 337 339 341 343 343 343 343 344 344 345 346 347 348 349 350 352 352 353 355 356 355 357 359 357 357 359 359 361 362 364 367 369 369 369 369 371 372 370 368 369 368 368
317 318 319 320 320 321 321 319 319 320 321 321 323 325 326 326 326 326 328 330 331 334 336 338 340 342 343 344 345 345 345 346 347 348 348 350 352 353 354 355 355 355 358 358 357 357 358 359 360 361 362 363 364 365 366 367 368 370 371 370 370 371 371
316 317 319 318 317 318 319 318 318 318 319 321 323 323 323 323 324 325 326 326 327 329 332 334 336 338 341 343 345 345 344 345 347 348 348 351 353 353 354 354 354 355 356 357 357 357 358 358 358 359 361 362 362 363 364 365 365 367 369 368 369 369 369
316 316 316 316 316 316 317 317 317 318 319 321 322 322 321 322 323 323 324 324 325 326 328 331 334 336 338 341 344 345 344 345 347 347 349 351 352 353 353 354 353 353 354 355 356 356 356 356 357 357 358 359 359 361 363 364 365 366 366 367 367 367 367
315 315 316 316 317 316 316 317 317 318 319 320 320 321 321 321 322 322 322 323 324 324 325 327 330 334 337 339 341 344 346 347 347 347 348 351 353 353 353 351 351 351 352 353 354 353 354 356 356 357 357 357 358 359 361 364 366 366 366 366 367 367 367
314 315 315 317 317 316 317 317 317 317 318 318 319 320 320 321 321 321 322 322 324 325 324 324 327 331 334 335 338 342 345 347 347 347 348 350 352 353 352 351 352 351 350 351 352 351 353 355 355 355 355 354 354 356 358 361 363 364 366 368 369 369 368
313 313 314 316 316 316 316 316 317 317 316 317 318 319 319 320 320 320 320 321 322 324 323 324 326 329 331 332 335 339 343 346 348 348 348 349 351 352 352 353 354 352 352 352 351 351 353 353 352 352 352 351 351 353 355 357 358 358 360 363 364 365 365
314 314 314 315 315 315 316 316 316 317 316 317 318 318 319 319 319 319 319 320 322 322 323 323 325 327 329 330 333 338 341 345 347 348 348 349 350 350 351 353 354 354 353 353 352 352 352 352 351 351 350 349 350 352 353 355 355 355 357 360 359 358 360
Wind_Speed
20 21 19 19 15 10 10 12 13 12 12 11 7 8 11 10 9 8 8 10 10 9 9 12 15 16 20 20 18 17 16 21 22 19 19 18 17 19 19 17 16 16 13 13 16 23 30 35 35 36 37 37 37 36 37 39 40 41 43 42 41 40 39
21 20 21 22 18 12 10 11 13 11 12 12 8 6 7 9 9 7 10 13 11 10 8 10 15 16 16 18 20 19 15 18 21 20 20 19 18 18 20 20 19 20 19 19 26 33 37 39 37 36 36 35 36 35 36 38 38 39 41 41 41 41 41
19 18 19 19 19 18 13 11 13 11 10 10 8 7 6 8 8 6 10 13 11 11 9 10 16 17 14 16 19 20 18 16 18 21 22 20 18 16 18 20 17 18 18 20 27 34 37 37 37 35 35 34 34 34 35 37 38 38 39 39 39 40 40
20 15 15 14 15 18 16 12 13 11 8 8 9 7 6 6 6 6 8 9 8 8 10 11 14 16 15 15 14 17 19 17 15 19 21 19 17 14 16 18 17 18 19 21 28 32 32 33 34 34 35 36 35 35 35 36 37 37 37 37 37 37 38
20 13 13 16 15 16 14 12 12 11 9 8 8 8 8 7 5 5 7 7 7 7 9 13 13 14 15 14 12 14 17 17 14 17 19 18 16 14 15 17 18 20 20 21 25 27 26 27 31 33 34 36 36 35 35 36 37 37 37 37 36 37 37
17 15 16 20 20 19 15 12 11 12 11 9 9 9 9 8 6 5 5 5 5 4 6 11 12 13 14 13 12 12 15 17 15 15 17 19 17 15 16 18 18 18 17 16 18 20 19 22 29 33 34 34 36 36 36 36 36 37 37 36 36 37 37
13 19 20 20 22 22 19 15 12 12 12 11 9 8 8 9 9 7 7 5 2 3 2 5 7 10 14 12 10 10 13 15 16 18 18 20 21 18 18 19 18 16 15 14 16 19 21 26 30 32 33 34 36 36 36 36 36 37 37 36 36 37 37
9 18 20 19 21 20 17 16 15 13 13 13 11 8 7 8 10 9 7 5 2 5 4 4 5 5 11 13 11 12 12 12 12 17 17 17 20 18 18 17 14 14 15 13 13 15 19 26 28 30 32 33 34 35 35 36 36 37 37 36 36 36 36
9 16 16 15 18 17 13 14 17 17 17 18 14 9 8 7 10 12 8 5 4 7 5 4 5 3 8 12 12 13 14 11 9 10 9 13 18 16 14 14 13 15 15 13 12 12 14 21 25 27 30 31 32 34 35 34 35 35 36 36 35 35 35
11 13 12 12 14 13 11 14 21 22 21 20 15 9 8 7 8 11 9 5 6 9 5 4 6 8 8 10 12 11 11 7 2 8 7 8 14 14 13 13 14 16 15 13 13 11 12 19 23 24 27 30 31 32 33 33 33 34 35 35 34 34 35
7 4 3 5 10 14 16 18 22 24 23 21 15 9 8 7 8 9 7 4 9 11 8 8 9 9 8 11 12 9 10 11 10 11 9 8 10 11 11 10 11 13 12 12 14 12 13 20 24 23 26 30 29 29 31 32 31 32 34 34 34 34 34
10 4 2 5 4 10 19 23 23 24 25 23 17 13 10 8 7 8 7 7 10 10 10 10 8 7 9 12 13 12 13 12 11 10 10 12 12 9 9 10 10 10 9 9 12 13 14 20 23 23 25 29 28 27 29 31 31 31 32 33 34 34 34
15 14 9 6 7 7 9 19 24 23 25 26 21 16 14 11 6 7 8 6 7 9 11 14 10 7 8 10 11 13 13 9 9 11 12 14 13 10 8 8 8 8 7 7 9 11 13 17 20 21 23 25 26 26 27 30 31 31 31 33 34 34 35
16 16 14 9 7 11 11 13 23 24 22 25 23 18 17 14 9 9 9 5 6 10 11 13 12 8 11 13 12 13 12 9 8 9 11 13 14 14 11 8 7 6 6 7 8 9 9 11 16 19 20 21 24 26 26 28 30 30 30 32 34 34 34
13 16 17 13 9 10 12 14 18 23 22 24 24 19 18 15 10 12 13 8 6 9 9 9 11 11 12 13 12 12 10 9 8 7 6 7 10 15 14 10 9 7 6 6 6 8 8 9 13 17 18 19 22 25 26 27 28 29 28 29 33 34 33
9 12 17 16 8 7 12 15 15 16 17 19 20 17 16 15 13 14 13 11 8 8 10 11 12 12 12 11 11 9 6 6 6 4 6 9 5 7 10 9 10 10 10 9 8 9 11 12 14 16 17 19 21 23 25 26 27 28 29 28 30 33 32
9 11 15 14 7 4 10 13 10 7 10 15 19 20 18 16 15 12 9 10 9 9 10 9 9 10 9 7 7 6 5 5 6 4 4 4 1 2 5 7 10 11 11 12 12 12 13 15 16 17 18 19 20 21 22 24 26 28 29 28 28 32 33
9 12 14 13 10 8 8 8 7 8 11 10 11 16 20 19 16 12 10 11 8 10 10 7 5 5 6 7 8 7 5 5 4 3 2 2 1 2 3 2 5 6 5 8 10 9 12 16 18 20 21 20 20 21 21 22 25 26 28 28 26 29 34
7 9 10 12 11 9 5 4 10 13 8 6 10 12 21 23 17 11 11 13 10 7 6 5 4 3 5 8 8 7 6 5 4 2 1 2 2 2 3 2 5 8 7 5 4 3 2 2 5 12 19 21 20 21 21 21 23 24 26 27 26 25 31
6 7 11 11 7 8 9 9 14 14 6 5 11 8 8 12 9 8 8 10 10 7 4 4 5 5 6 8 6 4 3 1 2 3 2 3 5 2 4 8 9 8 8 7 6 6 7 6 6 5 11 16 18 20 21 21 23 23 23 26 26 25 28
5 5 9 9 4 8 11 10 13 11 6 5 8 3 1 1 5 9 6 6 7 8 7 6 7 5 4 5 4 1 2 3 5 5 5 10 13 11 11 11 11 11 10 9 8 7 7 6 6 8 8 11 13 17 21 21 21 22 22 24 26 25 25
5 5 6 9 9 9 8 9 12 8 4 4 6 1 4 3 3 2 6 6 4 3 7 7 8 6 3 3 3 3 5 8 11 12 12 13 12 11 11 11 12 13 11 8 8 7 8 7 8 9 10 11 11 8 16 22 21 21 22 23 24 24 24
7 6 5 7 9 6 3 11 15 8 3 3 5 4 4 7 14 10 5 5 8 5 2 5 6 4 4 3 3 8 10 10 11 12 11 12 10 9 10 11 11 10 7 5 6 6 5 6 7 7 8 10 12 10 8 15 20 21 21 22 23 23 22
7 7 6 5 4 2 12 11 10 10 9 8 8 6 2 11 16 16 13 3 8 5 5 5 3 3 3 2 5 9 11 10 11 10 9 10 10 9 10 11 10 8 5 4 4 5 7 9 9 8 8 8 9 10 11 10 15 19 21 21 22 23 22
7 7 8 5 4 5 17 15 7 3 7 13 9 4 2 9 12 13 15 10 10 10 8 5 2 2 5 8 8 10 11 10 10 10 8 9 9 8 10 10 8 7 7 7 7 7 8 9 9 8 7 8 8 9 10 11 11 13 17 21 22 23 24
7 5 7 6 4 7 16 15 17 17 4 7 3 2 4 7 11 14 14 13 14 12 8 6 6 8 10 12 10 11 12 10 10 9 9 9 9 8 9 8 7 8 7 7 7 8 8 8 9 10 8 7 7 8 9 8 9 9 10 18 23 23 23
7 7 7 5 2 6 15 14 13 13 7 2 1 5 7 7 11 12 12 13 13 11 9 9 9 9 11 12 12 12 11 9 10 9 9 10 9 9 9 8 8 9 7 6 6 6 7 9 9 10 12 10 5 6 7 6 7 8 7 12 20 21 21
5 6 4 1 1 5 11 12 8 8 7 4 3 5 6 8 9 9 9 11 12 11 10 8 8 8 10 11 11 12 11 10 11 10 9 10 9 9 10 9 9 9 5 4 6 6 7 9 7 9 13 10 1 1 4 6 2 5 7 7 16 18 17
5 5 3 3 5 5 8 11 8 7 7 6 6 7 6 7 8 8 8 9 11 12 12 10 8 8 9 10 10 11 11 11 11 10 10 10 9 9 10 9 10 10 6 5 6 6 7 8 6 8 12 9 7 7 8 9 8 7 6 4 11 16 15
7 6 4 5 6 5 6 7 8 8 7 7 8 8 6 6 8 8 8 9 10 10 10 11 9 9 9 9 9 10 11 11 11 10 10 10 10 9 10 9 10 10 9 6 7 7 8 9 7 6 9 9 9 8 6 6 7 8 7 2 5 11 12
6 5 2 2 6 7 4 5 7 8 8 7 8 7 6 6 7 8 8 9 9 9 9 9 10 11 11 9 8 9 9 9 10 10 9 9 10 9 9 8 8 8 7 6 6 5 7 9 9 7 6 8 6 4 4 4 3 4 5 3 3 7 8
7 8 8 7 10 12 10 7 7 8 9 8 7 7 7 7 7 8 8 8 8 9 9 9 10 11 12 11 9 8 8 8 8 9 8 8 9 9 7 6 6 7 7 5 5 5 6 6 8 7 5 5 4 3 3 2 0 0 1 2 3 5 7
8 10 11 10 10 11 11 9 8 8 8 8 6 6 8 9 9 10 10 9 8 8 9 9 10 10 11 12 11 9 8 7 7 7 7 9 10 9 6 4 4 5 6 5 4 5 4 4 4 4 3 3 3 3 2 1 1 2 4 5 5 7 8
7 8 9 8 8 8 8 8 8 7 8 9 9 9 9 10 11 11 12 11 10 9 9 9 9 9 9 12 14 12 8 6 6 6 6 8 10 8 5 3 2 2 2 3 3 3 3 5 4 2 2 3 4 5 5 3 2 4 6 6 6 7 5
8 10 11 9 8 8 9 10 10 8 8 10 12 12 11 10 10 11 13 13 13 12 11 10 10 10 9 11 14 14 11 8 6 6 6 6 8 8 5 3 1 2 2 1 1 0 4 6 4 2 2 4 5 5 6 5 5 4 3 5 5 8 9
12 14 14 12 11 10 11 13 13 10 8 9 11 13 14 13 11 11 12 13 13 13 13 12 11 11 11 10 12 14 14 11 8 7 6 7 8 8 5 2 1 2 3 3 3 1 3 5 6 5 6 7 7 7 8 8 10 11 7 3 6 9 10
13 14 14 14 14 13 12 12 13 12 10 9 10 12 13 14 14 13 13 12 12 12 13 13 14 14 13 10 10 12 14 13 10 8 7 7 7 7 4 2 4 4 4 4 5 4 5 7 9 8 7 7 8 9 10 9 9 13 14 10 9 10 9
Wind_Direction
203 194 199 208 207 193 186 196 209 209 203 212 226 224 217 219 227 217 209 219 221 233 235 219 221 220 214 215 221 226 203 174 175 176 179 189 182 172 175 178 180 183 180 176 194 211 208 199 197 196 193 190 186 184 184 185 185 185 186 188 189 190 192
202 189 193 211 218 207 187 194 206 202 204 219 234 239 221 214 226 221 214 220 212 214 224 211 214 220 218 209 206 222 217 182 176 174 175 185 186 178 171 169 176 183 184 184 192 204 206 199 197 196 192 190 187 185 184 184 185 186 186 187 188 190 191
191 181 190 209 217 219 214 196 194 200 205 207 215 237 231 217 226 221 218 226 216 203 206 209 208 207 219 220 201 206 217 203 184 176 172 178 186 183 166 164 173 178 180 186 192 200 202 196 196 196 191 189 188 186 186 186 186 186 186 187 189 190 190
184 178 192 205 205 213 223 209 193 202 213 204 203 218 232 229 224 217 224 231 229 212 193 198 205 194 203 226 209 195 209 213 189 169 168 177 185 179 163 165 173 176 182 189 192 197 201 198 195 195 193 191 190 189 187 188 188 187 188 188 189 190 190
186 186 194 199 197 199 211 213 199 195 203 208 205 208 222 237 232 214 221 227 232 226 189 188 200 185 185 216 220 193 200 209 187 168 172 177 179 178 170 169 173 178 184 188 189 190 197 204 200 195 196 194 192 192 190 189 190 189 189 189 189 191 192
192 195 193 197 201 199 200 209 206 194 194 201 205 206 207 221 242 237 230 236 239 226 182 183 189 171 170 204 216 190 194 203 188 178 179 169 171 185 180 171 171 175 179 180 178 174 186 210 207 198 198 196 193 194 192 191 191 190 191 191 190 192 193
205 192 188 194 205 206 202 208 213 202 196 200 207 207 194 204 225 237 247 257 308 30 88 147 149 153 165 188 204 179 191 210 193 185 186 169 172 186 177 169 170 168 168 172 168 165 183 210 210 199 198 199 196 196 194 193 193 192 192 192 191 193 195
230 190 185 193 205 209 205 205 212 212 201 198 208 211 195 201 209 213 238 237 156 58 51 88 82 130 162 171 189 177 184 222 202 182 188 173 166 177 175 167 161 154 158 168 169 171 188 205 204 195 198 200 198 197 196 195 195 192 192 193 192 192 195
221 187 183 189 199 211 214 200 204 216 211 197 203 214 202 204 207 203 216 220 149 93 77 92 95 179 184 168 182 179 175 212 214 166 168 159 152 163 170 155 140 145 157 168 175 184 194 199 196 193 197 201 199 199 199 197 196 193 192 193 193 191 192
209 188 191 195 191 200 218 206 197 209 217 203 195 209 209 199 195 200 213 211 139 117 116 138 153 200 205 160 167 177 160 165 116 83 94 130 144 155 163 155 149 155 165 174 178 184 189 192 195 193 195 201 202 201 201 200 197 195 194 194 193 191 191
222 162 159 205 198 194 209 213 198 199 214 212 198 201 211 194 178 195 215 179 136 140 163 172 167 182 178 149 157 154 113 95 76 74 80 99 126 143 147 143 146 152 161 172 178 182 185 189 195 196 195 200 204 201 200 202 200 197 196 194 193 192 192
246 227 25 354 284 215 207 211 205 196 203 212 208 202 197 188 182 188 188 162 154 163 162 145 144 164 159 158 158 129 98 93 97 97 96 101 112 124 125 120 129 148 162 171 178 183 185 188 193 198 199 200 203 202 199 201 203 201 197 195 194 192 192
248 241 253 304 317 300 239 217 211 198 198 206 211 209 193 185 199 184 162 156 157 150 140 137 147 154 132 130 124 101 85 86 115 130 125 118 118 119 122 128 138 159 171 168 172 177 180 185 192 199 202 199 200 202 199 200 204 204 199 195 195 194 193
251 251 254 256 276 307 306 249 215 200 197 203 207 214 201 188 204 191 158 143 144 140 142 151 150 123 99 101 92 78 72 71 97 131 132 131 140 140 134 145 155 157 152 143 150 163 174 185 192 199 203 198 197 201 202 201 204 206 202 196 195 196 195
257 256 249 239 244 272 297 286 233 204 198 200 202 212 208 190 198 197 170 158 159 141 122 112 103 81 78 90 85 74 79 85 93 114 105 98 137 142 138 149 158 151 142 134 143 164 180 196 197 198 202 199 199 203 204 204 204 206 207 199 194 198 199
258 257 239 224 227 267 281 282 252 213 204 204 197 203 212 197 190 194 180 169 164 128 110 107 96 82 78 82 80 74 77 80 79 82 58 47 70 128 126 130 140 147 156 160 168 180 190 203 206 201 200 201 203 206 206 204 203 206 209 205 196 197 200
250 255 244 225 209 257 265 259 242 230 247 229 199 194 209 207 195 193 186 177 158 107 109 128 111 98 105 104 92 84 72 67 67 61 63 68 128 145 99 116 139 153 168 172 177 187 189 195 204 205 204 204 205 209 208 205 203 205 209 209 201 195 198
253 254 255 235 210 213 241 241 227 247 268 255 214 200 201 203 205 199 180 179 159 92 93 124 112 103 117 105 93 94 90 87 93 93 82 86 119 75 68 130 136 118 130 152 161 175 180 187 197 200 202 206 206 209 212 208 205 205 206 210 207 196 195
255 245 242 231 219 215 230 258 249 249 264 309 302 249 202 193 199 187 164 172 169 116 108 140 132 104 101 96 94 93 86 79 75 63 31 6 306 217 180 152 77 62 58 74 86 80 109 201 215 197 196 201 203 207 213 211 208 207 204 208 211 200 192
248 223 218 221 228 221 217 233 242 237 232 275 288 275 191 173 159 128 138 168 159 122 103 112 104 96 95 94 82 52 44 50 311 283 287 9 352 335 96 89 73 59 48 40 34 20 4 342 312 253 210 204 202 205 211 212 209 208 205 205 209 204 194
251 233 222 219 228 219 214 229 238 224 205 257 276 297 76 183 141 127 144 185 173 167 183 160 109 96 97 101 104 67 301 317 344 348 28 44 35 29 47 65 67 59 48 37 29 9 345 317 285 277 259 235 218 204 202 207 209 206 205 206 208 206 198
277 272 237 218 215 207 208 239 249 235 201 276 296 203 183 287 334 160 191 186 136 160 185 147 99 91 113 127 114 63 28 24 28 30 33 39 38 31 36 52 59 51 37 17 359 328 303 294 283 278 274 275 280 242 200 198 201 203 207 208 207 206 202
279 276 257 232 211 193 247 244 227 202 152 278 289 181 163 353 358 347 288 179 121 81 70 92 84 117 154 143 66 31 23 27 34 29 23 25 27 22 31 47 45 28 8 340 318 301 307 330 318 295 280 275 286 293 247 203 194 198 207 208 206 206 203
273 263 258 248 178 53 339 298 218 180 173 212 237 194 159 351 358 2 354 40 120 88 44 65 89 149 138 58 18 11 6 13 23 18 12 17 14 5 17 34 30 6 354 355 337 341 7 4 339 319 314 296 275 280 284 249 209 201 205 205 204 204 202
262 256 253 241 130 26 338 335 359 9 199 200 212 200 267 333 354 10 8 27 57 42 38 60 64 41 14 358 1 6 2 6 12 7 3 6 5 359 0 10 18 11 12 20 10 358 0 351 333 322 312 300 285 279 283 271 242 219 206 200 200 201 201
259 256 254 242 124 17 340 352 19 11 347 190 192 334 310 336 9 13 10 32 41 28 27 32 15 8 357 351 360 6 2 5 4 1 5 2 2 4 353 356 28 28 13 12 1 347 348 347 343 341 322 292 278 280 283 272 254 247 219 196 192 193 196
256 250 251 247 148 357 348 7 30 23 26 120 44 357 341 359 25 16 11 32 33 18 23 23 7 358 352 352 360 359 356 1 360 1 7 360 357 0 347 352 23 18 2 8 0 350 359 356 343 340 331 312 267 253 281 281 246 250 245 198 186 186 190
239 237 248 347 266 306 356 25 42 41 43 43 42 35 359 355 21 22 15 25 20 9 13 9 357 359 357 352 352 349 351 357 355 360 5 354 349 350 340 346 6 357 347 17 7 358 10 4 350 340 333 323 272 145 356 3 343 268 267 208 180 179 183
274 276 301 322 283 300 19 35 26 25 27 8 20 45 24 354 13 21 12 13 11 5 0 353 351 358 353 346 346 346 347 348 347 351 353 346 347 347 340 351 4 350 338 9 14 5 3 3 2 349 344 358 54 55 23 18 21 1 324 232 179 174 179
305 301 269 254 279 324 37 36 4 356 357 354 12 36 31 5 1 3 6 10 7 1 356 352 350 347 342 343 344 342 339 336 339 345 343 340 344 342 337 349 357 342 332 351 10 5 356 360 9 2 360 21 47 45 21 9 12 11 1 350 162 163 169
299 294 238 258 317 329 360 18 354 332 323 344 12 22 18 3 347 345 358 2 357 357 0 357 348 341 339 341 340 336 332 328 334 340 336 332 335 334 336 348 347 334 334 347 356 3 5 4 4 8 17 24 34 42 30 15 9 9 6 18 118 142 156
267 264 269 300 317 314 314 328 335 315 311 335 6 6 353 343 332 337 348 349 347 352 356 351 343 337 338 339 336 330 326 326 331 337 335 329 325 325 337 355 350 340 343 347 353 10 17 5 357 7 21 17 19 40 35 16 47 103 193 188 165 157 167
278 263 267 280 291 293 292 286 280 291 312 330 344 346 340 332 328 331 335 336 340 346 346 343 340 337 334 334 330 324 323 324 323 326 327 322 316 312 320 344 356 352 345 344 9 22 9 342 350 16 26 20 35 55 57 83 142 145 163 181 188 181 182
271 262 266 279 286 284 279 274 279 305 332 329 319 322 329 329 328 329 330 330 333 338 338 335 333 333 332 329 325 321 318 317 316 316 318 319 317 310 299 305 337 2 328 332 19 26 310 284 262 216 143 94 75 56 44 51 102 132 153 176 181 162 143
273 277 282 294 300 290 286 289 294 311 330 324 314 316 319 321 324 327 327 328 328 328 328 328 328 331 332 329 324 320 316 315 318 316 306 304 313 319 315 305 292 178 186 198 111 283 301 303 282 214 115 77 79 83 73 59 56 80 143 173 147 111 85
279 281 286 294 295 288 293 301 300 300 311 314 309 307 308 311 317 320 318 319 320 319 319 320 322 325 327 328 324 320 314 311 310 308 297 289 301 318 335 358 63 154 160 148 140 148 348 5 19 40 48 33 27 50 59 47 38 35 33 92 118 102 86
284 280 281 285 286 285 291 298 296 292 294 298 296 296 298 303 310 313 311 309 310 311 312 314 316 319 322 322 318 313 309 304 298 291 281 272 283 297 313 36 83 97 107 110 106 93 67 44 32 37 57 51 40 46 46 39 43 41 34 44 81 94 92